sat.trackr.live / text

‹ back to catalog

STARLINK-36940

NORAD 68027 · 2026-040N

PAYLOAD ACTIVE UNKNOWN

§ Identity

Operator
Country
US
Launch date
2026-03-01
Launch site
AFWTR
Launch vehicle
Mass (kg)
RCS (m²)

Purposes: comms

External: N2YO · Heavens-Above · Gunter

§ Orbital elements

Epoch: 2026-05-25T03:16:15.748032Z

Period
93.91 min
Inclination
97.2843°
Eccentricity
0.0001247
Mean motion
15.33448401 rev/d
Perigee alt
464.7 km
Apogee alt
466.4 km
Semi-major
6,843.7 km
B*
5.4319e-4
RAAN
94.2323°
Arg perigee
95.8581°
Mean anomaly
264.2803°
Rev number
1,318

§ Raw data

STARLINK-369401 68027U 26040N   26145.13629338  .00017504  00000+0  54319-3 0  99992 68027  97.2843  94.2323 0001247  95.8581 264.2803 15.33448401 13182

JSON: /api/v1/satellites/68027 · /tle

For live sub-satellite position, see the globe view (requires WebGL).

§ Visibility from observer

Set your observer location to see the next 7 days of passes ≥ 10°. The values pass through the URL so the page stays shareable.

No JS? Fill the form by hand. The geolocation button needs JavaScript.